Location: Unspecified
(0.0000°N, 0.0000°E)
Time: 14:58:13
(UTC+00:00)

Altair - Visible Passes

Search period start: 30 August 2016 00:00
Search period end: 09 September 2016 00:00
Orbit: 1502 x 1682 km, 47.2° (Epoch: 29 August)

Date Brightness Start Highest point End Pass type
(mag) Time Alt. Az. Time Alt. Az. Time Alt. Az.
30 Aug 8.4 18:37:50 10° N 18:45:00 25° NE 18:50:31 15° E visible
30 Aug 7.7 20:40:29 10° NW 20:48:36 61° WSW 20:48:36 61° WSW visible
31 Aug 8.6 18:13:09 10° N 18:19:49 22° NE 18:26:30 10° E visible
31 Aug 7.4 20:15:17 10° NW 20:24:23 72° SW 20:25:33 65° S visible
01 Sep 7.4 19:50:06 10° NW 19:59:15 80° SW 20:02:36 45° SSE visible
01 Sep 9.6 21:59:50 10° WSW 22:00:41 11° WSW 22:00:41 11° WSW visible
02 Sep 7.3 19:24:58 10° NW 19:34:08 89° SW 19:39:42 28° SE visible
02 Sep 9.4 21:33:43 10° W 21:37:49 16° SW 21:37:49 16° SW visible
03 Sep 7.4 18:59:51 10° NW 19:09:02 83° NE 19:16:54 16° SE visible
03 Sep 9.2 21:07:48 10° W 21:13:47 19° SW 21:15:00 18° SW visible
04 Sep 7.4 18:34:46 10° NNW 18:43:54 74° NE 18:53:07 10° SE visible
04 Sep 9.1 20:42:01 10° W 20:48:33 22° SW 20:52:15 17° SSW visible
05 Sep 9.2 05:20:18 10° SSW 05:29:06 33° SE 05:37:50 10° ENE visible
05 Sep 7.5 18:09:42 10° NNW 18:18:47 66° NE 18:27:54 10° SE visible
05 Sep 9.0 20:16:21 10° W 20:23:22 25° SW 20:29:32 13° S visible
06 Sep 9.2 04:55:26 10° S 05:03:51 30° SE 05:12:15 10° ENE visible
06 Sep 8.9 19:50:45 10° WNW 19:58:10 28° SW 20:05:44 10° S visible
07 Sep 9.3 04:30:38 10° S 04:38:37 26° SE 04:46:35 10° E visible
07 Sep 8.8 19:25:13 10° WNW 19:33:00 31° SW 19:40:56 10° S visible
08 Sep 9.4 04:05:54 10° S 04:13:23 23° SE 04:20:52 10° E visible
08 Sep 8.7 18:59:45 10° WNW 19:07:51 36° SW 19:16:04 10° SSE visible
